Orbital Elements at Epoch 2459200.5 (2020-Dec-17.0) TDB
Reference: JPL 30 (heliocentric ecliptic J2000)
Element | Value | Uncertainty (1-sigma) | Units |
e | .1782533034153868 | 3.842e-08 | |
a | 2.665130776947541 | 1.1206e-08 | au |
q | 2.190062411922625 | 1.0515e-07 | au |
i | 13.11653257480468 | 4.0967e-06 | deg |
node | 84.17127113562994 | 1.7718e-05 | deg |
peri | 336.5306783641632 | 2.1476e-05 | deg |
M | 77.54106478452798 | 1.048e-05 | deg |
tp | 2458858.201123793273 (2020-Jan-09.70112379) | 4.6372e-05 | TDB |
period | 1589.191427495199 4.35 | 1.0023e-05 2.744e-08 | d yr |
n | .2265302931865253 | 1.4287e-09 | deg/d |
Q | 3.140199141972456 | 1.3203e-08 | au |
|
| | Orbit Determination Parameters
Additional Information
|